Погода в Бережанах

Украина / Тернопольская область     49°26′49″N   24°56′27″E
темп.,
°C
ветер,
м/с
пор.,
м/с
влажн.,
%
обл.,
%
осадки,
мм/ч
давл.,
гПа
погр.,
м
14 мая, пт
пт1400:00+10ююв4109610 0.3 1004275
03:00+8ююв359712 0.3 100487
06:00+8ю339266 0.0 100447
09:00+13ю347964 0.0 1004287
12:00+17ююз456897 0.7 10041115
15:00+16ююз5670100 3.0 10051187
18:00+14зюз687994 1.0 1006887
21:00+10зюз4108576 1.0 1007383
15 мая, сб
сб1500:00+8зюз398995 0.0 1008193
03:00+9зюз4988100 0.0 1009400
06:00+9зюз61198100 1.6 1009479
09:00+10зюз5997100 4.6 1011577
12:00+10з5894100 4.3 1012535
15:00+12зсз358526 4.3 1012540
18:00+15сз127034 0.1 1011940
21:00+11ююв22855 0.3 101110
16 мая, вс
вс1600:00+10юв229160 0.0 101126
03:00+8вюв2392100 0.0 101132
06:00+8юв3493100 0.0 101069
09:00+13юв578388 0.0 1010356
12:00+18юв456956 0.0 1008835
15:00+19ююв676780 0.2 10071166
18:00+16юз4683100 1.9 1006627
21:00+12ююз239498 5.5 100797
17 мая, пн
пн1700:00+10юз229298 0.4 100817
03:00+10зюз2391100 0.4 100861
06:00+9зюз2395100 0.0 100849
09:00+13зсз46845 0.0 1009515
12:00+16з56650 0.0 10091157
15:00+18зсз34572 0.0 10081577
18:00+18с335988 0.0 10071258
21:00+13зюз3478100 0.4 100851
18 мая, вт
вт1800:00+11ссз3598100 4.8 1010164
03:00+10юв119796 5.3 101026
06:00+11ююв1197100 0.1 101021
09:00+12вюв1293100 0.8 1010232
12:00+11всв3595100 2.1 1010353
15:00+12ссв3493100 7.4 1009325
18:00+10ссз5897100 1.1 1010409
21:00+10ссз61196100 1.4 1010592